Weather Roundup
Issued by NWS Corpus Christi, TX

Home | Current Version | Previous Version | Text Only | Print | Product List | Glossary On
Versions: 1 2 3 4 5 6 7 8 9 10 11 12 13 14 15 16 17 18 19 20 21 22 23 24 25 26 27 28 29 30 31 32 33 34 35 36 37 38 39 40 41 42 43 44 45 46 47 48 49 50
000
ASUS44 KCRP 201910
HRRCRP

SOUTH TEXAS REGIONAL WEATHER ROUNDUP
NATIONAL WEATHER SERVICE CORPUS CHRISTI TX
100 PM CST SAT JAN 20 2018


TXZ229>244-202000-
...CORPUS CHRISTI AREA OBSERVATIONS...

CITY           SKY/WX    TMP DP  RH WIND       PRES   REMARKS
CORPUS CHRISTI FAIR      68  62  81 S9        30.03F
NAS CORPUS CHR FAIR      66  59  78 SE7       30.04F
ROCKPORT       FAIR      64  58  80 E7        30.04F
KINGSVILLE ARP CLOUDY    68  64  85 S7        30.04F
KINGSVILLE NAS PTSUNNY   66  58  75 SW8       30.03F
ALICE          PTSUNNY   67  58  72 S8        30.03F
$$

...VICTORIA AREA OBSERVATIONS...

CITY           SKY/WX    TMP DP  RH WIND       PRES   REMARKS
PORT LAVACA    FAIR      70  59  68 S15       30.05F
VICTORIA       PTSUNNY   66  59  78 SW6       30.05F
BEEVILLE       FAIR      65  59  80 S8        30.03F
PLEASANTON     CLOUDY    55  54  95 S3        30.04F
SAN ANTONIO    CLOUDY    57  52  83 S7        30.04F
$$

...LAREDO AREA OBSERVATIONS...

CITY           SKY/WX    TMP DP  RH WIND       PRES   REMARKS
LAREDO         MOSUNNY   59  52  77 SE9       30.01F
COTULLA        CLOUDY    55  52  89 CALM      30.04F
DEL RIO        CLOUDY    50  46  86 CALM      30.01F
MCALLEN        FAIR      74  62  66 SE14G23   30.00F
HEBBRONVILLE   CLOUDY    58  58  99 S9        30.03F
$$

...OTHER TEXAS OBSERVATIONS...

CITY           SKY/WX    TMP DP  RH WIND       PRES   REMARKS
BROWNSVILLE    FAIR      78  62  57 S21G28    30.03F
HOUSTON        CLOUDY    67  65  93 SE8       30.06F
COL. STATION   CLOUDY    59  59 100 S8        30.05F FOG
AUSTIN         CLOUDY    61  57  87 S16       30.03F
WACO           PTSUNNY   67  55  65 S20       29.98F
FORT WORTH     MOSUNNY   69  52  54 S23G30    29.92F
WICHITA FALLS  SUNNY     66  40  38 S21       29.83F
LUBBOCK        MOSUNNY   70  15  12 W15       29.85F
EL PASO        MOSUNNY   61  21  21 S5        29.98F
$$

...MARINE OBSERVATIONS...

STATION/POSITION TIME  SKY/WX   TEMP    WIND        PRES    VSBY  WAVE   SWELL
                                AIR SEA DIR/SP/G                  HT/PER HT/PER
                 (UTC)          (F)     (DEG/KT/KT) (MB)    (MI)  (FT/S) (FT/S)
PORT ARANSAS     NOT AVBL
BUOY 90 E PORT A 1850            72 71  150/ 14/ 17 1017.8F         6/ 6   3/ 7
BUOY 200 E PT IS 1850            72 73  140/ 14/ 16 1019.3F         5/ 6   2/13
BUOY 15 E GALVES 1750            57 52  120/  8/ 10 1019.6          4/ 6   3/ 6
$$




USA.gov is the U.S. government's official web portal to all federal, state and local government web resources and services.